Date String (YYYY-MM-DD hh:mm:ss) UTC,Instrument flags,Ambient pressure (hPa),Sample flow (lpm),Bypass flow (lpm),Sample temperature (°C),Ambient temperature (°C),ASC tube jacket temperature (°C),LED temperature (°C),Box temperature (°C),Sample RH (%),Span deviation,Mass concentration (μg/m³),Mass concentration (μg/m³),Mass concentration (μg/m³)
DateTimeUTC,F1_M11,P_M11,Q1_M11,Q2_M11,T1_M11,T2_M11,T3_M11,T4_M11,T5_M11,U1_M11,ZSPAN_M11,X0_M11,X2_M11,X1_M11
2023-01-11 01:00:00,,0817.1,4.99,0.00,22.3,20.9,00.0,31.2,24.0,14.4,0000.0,0002.85,0000.62,0000.34
2023-01-11 01:01:00,,0817.0,4.99,0.00,22.3,20.9,00.0,31.2,24.0,14.2,0000.0,0003.59,0000.61,0000.35
2023-01-11 01:02:00,,0817.0,5.00,0.00,22.3,20.9,00.0,31.2,24.1,14.4,0000.0,0003.00,0000.59,0000.36
2023-01-11 01:03:00,,0817.1,5.01,0.00,22.3,21.0,00.0,31.2,24.1,14.6,0000.0,0002.47,0000.55,0000.37
2023-01-11 01:04:00,,0817.1,5.00,0.00,22.3,21.1,00.0,31.2,24.1,14.7,0000.0,0002.41,0000.54,0000.37
2023-01-11 01:05:00,,0817.2,5.00,0.00,22.3,21.1,00.0,31.2,24.1,14.5,0000.0,0002.38,0000.52,0000.37
2023-01-11 01:06:00,,0817.1,5.00,0.00,22.3,21.1,00.0,31.2,24.1,14.5,0000.0,0002.30,0000.51,0000.37
2023-01-11 01:07:00,,0817.0,5.00,0.00,22.3,21.1,00.0,31.2,24.1,14.4,0000.0,0002.26,0000.50,0000.37
2023-01-11 01:08:00,,0817.0,5.00,0.00,22.3,21.1,00.0,31.2,24.2,14.2,0000.0,0002.25,0000.49,0000.37
2023-01-11 01:09:00,,0817.1,5.01,0.00,22.4,21.1,00.0,31.2,24.2,14.3,0000.0,0002.24,0000.49,0000.37
2023-01-11 01:10:00,,0817.1,5.01,0.00,22.4,21.1,00.0,31.2,24.2,14.3,0000.0,0002.19,0000.48,0000.38
2023-01-11 01:11:00,,0817.1,5.00,0.00,22.4,21.1,00.0,31.2,24.2,14.5,0000.0,0001.88,0000.49,0000.37
2023-01-11 01:12:00,,0817.2,5.00,0.00,22.4,21.1,00.0,31.2,24.2,14.4,0000.0,0001.10,0000.47,0000.37
2023-01-11 01:13:00,,0817.2,5.00,0.00,22.4,21.1,00.0,31.2,24.2,14.0,0000.0,0000.82,0000.48,0000.36
2023-01-11 01:14:00,,0817.1,5.00,0.00,22.4,21.0,00.0,31.2,24.2,13.9,0000.0,0000.91,0000.51,0000.36
2023-01-11 01:15:00,,0817.2,5.00,0.00,22.4,21.0,00.0,31.2,24.2,14.1,0000.0,0001.13,0000.51,0000.35
2023-01-11 01:16:00,,0817.3,4.99,0.00,22.4,20.9,00.0,31.2,24.1,14.3,0000.0,0002.28,0000.50,0000.34
2023-01-11 01:17:00,,0817.3,5.02,0.00,22.3,20.8,00.0,31.2,24.0,14.3,0000.0,0002.28,0000.49,0000.33
2023-01-11 01:18:00,,0817.2,5.00,0.00,22.3,20.7,00.0,31.2,24.0,14.2,0000.0,0002.30,0000.49,0000.32
2023-01-11 01:19:00,,0817.1,4.99,0.00,22.3,20.7,00.0,31.2,24.0,14.4,0000.0,0002.29,0000.49,0000.32
2023-01-11 01:20:00,,0817.2,4.99,0.00,22.3,20.7,00.0,31.2,24.0,14.2,0000.0,0002.30,0000.49,0000.31
2023-01-11 01:21:00,,0817.2,5.00,0.00,22.3,20.7,00.0,31.2,24.0,14.2,0000.0,0002.30,0000.49,0000.31
2023-01-11 01:22:00,,0817.2,5.02,0.00,22.3,20.7,00.0,31.2,24.0,14.5,0000.0,0002.23,0000.46,0000.30
2023-01-11 01:23:00,,0817.3,5.03,0.00,22.3,20.7,00.0,31.2,24.0,14.2,0000.0,0002.23,0000.46,0000.29
2023-01-11 01:24:00,,0817.3,4.99,0.00,22.2,20.6,00.0,31.2,23.9,13.7,0000.0,0002.17,0000.44,0000.28
2023-01-11 01:25:00,,0817.3,5.00,0.00,22.2,20.5,00.0,31.2,23.9,13.5,0000.0,0002.02,0000.38,0000.27
2023-01-11 01:26:00,,0817.3,5.01,0.00,22.2,20.5,00.0,31.2,23.9,13.8,0000.0,0001.69,0000.37,0000.26
2023-01-11 01:27:00,,0817.4,5.00,0.00,22.2,20.5,00.0,31.1,23.8,13.8,0000.0,0000.72,0000.36,0000.25
2023-01-11 01:28:00,,0817.4,4.99,0.00,22.1,20.5,00.0,31.1,23.8,13.7,0000.0,0001.87,0000.34,0000.25
2023-01-11 01:29:00,,0817.4,5.00,0.00,22.1,20.4,00.0,31.1,23.8,13.7,0000.0,0001.83,0000.34,0000.25
2023-01-11 01:30:00,,0817.4,5.01,0.00,22.1,20.4,00.0,31.1,23.7,13.8,0000.0,0001.83,0000.33,0000.24
2023-01-11 01:31:00,,0817.4,5.00,0.00,22.1,20.4,00.0,31.1,23.7,13.7,0000.0,0001.82,0000.33,0000.24
2023-01-11 01:32:00,,0817.3,5.00,0.00,22.1,20.4,00.0,31.1,23.8,13.6,0000.0,0001.81,0000.33,0000.24
2023-01-11 01:33:00,,0817.3,5.01,0.00,22.1,20.5,00.0,31.0,23.8,13.6,0000.0,0001.77,0000.32,0000.23
2023-01-11 01:34:00,,0817.3,4.99,0.00,22.1,20.5,00.0,31.0,23.8,13.4,0000.0,0001.76,0000.31,0000.23
2023-01-11 01:35:00,,0817.2,5.00,0.00,22.0,20.4,00.0,31.0,23.7,13.4,0000.0,0001.74,0000.30,0000.22
2023-01-11 01:36:00,,0817.2,5.00,0.00,22.0,20.4,00.0,31.0,23.7,13.4,0000.0,0001.92,0000.30,0000.22
2023-01-11 01:37:00,,0817.4,4.99,0.00,22.0,20.4,00.0,31.0,23.6,13.4,0000.0,0002.76,0000.30,0000.22
2023-01-11 01:38:00,,0817.5,5.01,0.00,22.0,20.3,00.0,31.0,23.6,13.3,0000.0,0002.74,0000.28,0000.22
2023-01-11 01:39:00,,0817.6,4.99,0.00,22.0,20.4,00.0,31.0,23.7,13.3,0000.0,0001.70,0000.28,0000.22
2023-01-11 01:40:00,,0817.5,5.00,0.00,22.0,20.4,00.0,30.9,23.7,13.4,0000.0,0001.40,0000.28,0000.22
2023-01-11 01:41:00,,0817.5,4.99,0.00,22.0,20.5,00.0,30.9,23.8,13.4,0000.0,0001.39,0000.28,0000.22
2023-01-11 01:42:00,,0817.5,5.00,0.00,22.0,20.5,00.0,30.9,23.7,13.5,0000.0,0001.38,0000.26,0000.22
2023-01-11 01:43:00,,0817.5,4.99,0.00,22.0,20.6,00.0,30.9,23.8,13.4,0000.0,0001.39,0000.26,0000.22
2023-01-11 01:44:00,,0817.4,5.00,0.00,22.0,20.7,00.0,30.9,23.8,13.3,0000.0,0001.42,0000.27,0000.22
2023-01-11 01:45:00,,0817.4,5.01,0.00,22.0,20.7,00.0,30.9,23.8,13.3,0000.0,0001.44,0000.29,0000.22
2023-01-11 01:46:00,,0817.5,5.02,0.00,22.1,20.8,00.0,30.9,23.8,13.4,0000.0,0001.45,0000.29,0000.22
2023-01-11 01:47:00,,0817.4,5.01,0.00,22.1,20.8,00.0,30.9,23.9,13.4,0000.0,0001.30,0000.31,0000.22
2023-01-11 01:48:00,,0817.3,4.99,0.00,22.1,20.8,00.0,30.9,23.9,13.2,0000.0,0000.53,0000.31,0000.22
2023-01-11 01:49:00,,0817.2,5.00,0.00,22.1,20.9,00.0,30.9,23.9,13.2,0000.0,0000.53,0000.32,0000.22
2023-01-11 01:50:00,,0817.3,4.99,0.00,22.1,20.9,00.0,30.9,23.9,13.2,0000.0,0000.55,0000.32,0000.22
2023-01-11 01:51:00,,0817.5,5.00,0.00,22.1,20.8,00.0,30.9,23.9,13.4,0000.0,0000.55,0000.32,0000.21
2023-01-11 01:52:00,,0817.6,4.99,0.00,22.1,20.8,00.0,30.9,23.9,13.6,0000.0,0000.56,0000.32,0000.21
2023-01-11 01:53:00,,0817.6,5.01,0.00,22.1,20.8,00.0,31.0,23.9,13.4,0000.0,0000.55,0000.32,0000.20
2023-01-11 01:54:00,,0817.5,4.99,0.00,22.1,20.7,00.0,31.0,23.8,13.4,0000.0,0000.56,0000.32,0000.20
2023-01-11 01:55:00,,0817.5,5.00,0.00,22.1,20.6,00.0,30.9,23.8,13.3,0000.0,0000.53,0000.30,0000.19
2023-01-11 01:56:00,,0817.5,4.98,0.00,22.0,20.6,00.0,30.9,23.8,13.5,0000.0,0000.50,0000.28,0000.19
2023-01-11 01:57:00,,0817.5,5.00,0.00,22.0,20.6,00.0,30.9,23.8,13.5,0000.0,0000.48,0000.27,0000.19
2023-01-11 01:58:00,,0817.5,5.00,0.00,22.0,20.6,00.0,30.9,23.8,13.7,0000.0,0000.40,0000.25,0000.20
2023-01-11 01:59:00,,0817.5,5.00,0.00,22.0,20.7,00.0,30.9,23.8,13.7,0000.0,0000.36,0000.24,0000.19
